Location: Wien
(48.2082°N, 16.3738°E)
Time: 12:02:09
(UTC+02:00)

Tiros 1 despin weight - Pass Details

Date: 20 September 2024
Orbit: 573 x 615 km, 48.2° (Epoch: 06 October)

Event Time Altitude Azimuth Distance (km) Brightness Sun altitude
Rises 08:13:23 0° 283° (WNW) 2,888 ? 14.7°
Reaches altitude 10° 08:16:05 10° 268° (W) 1,980 ? 15.2°
Maximum altitude 08:19:36 22° 217° (SW) 1,346 ? 15.7°
Drops below altitude 10° 08:23:06 10° 167° (SSE) 1,967 ? 16.3°
Sets 08:25:47 0° 152° (SSE) 2,863 ? 16.7°
